Regional Weather Roundup
Issued by NWS Cleveland, OH

Home | Current Version | Previous Version | Graphics & Text | Print | Product List | Glossary On
Versions: 1 2 3 4 5 6 7 8 9 10 11 12 13 14 15 16 17 18 19 20 21 22 23 24 25 26 27 28 29 30 31 32 33 34 35 36 37 38 39 40 41 42 43 44 45 46 47 48 49 50
000
ASUS41 KCLE 161902
RWRCLE
OHIO REGIONAL WEATHER ROUNDUP
NATIONAL WEATHER SERVICE CLEVELAND, OH
300 PM EDT WED AUG 16 2017

NOTE: "FAIR" INDICATES FEW OR NO CLOUDS BELOW 12,000 FEET WITH NO
SIGNIFICANT WEATHER AND/OR OBSTRUCTIONS TO VISIBILITY.

OHZ001>008-015>018-024>027-034-035-043-044-162000-
   NORTHWEST OHIO

CITY           SKY/WX    TMP DP  RH WIND       PRES   REMARKS
DEFIANCE       MOSUNNY   84  64  50 E8        30.01F
FINDLAY        SUNNY     86  63  45 SE7       30.01F
TOLEDO EXPRESS PTSUNNY   83  65  54 VRB7      30.03F
TOLEDO EXEC    MOSUNNY   84  65  52 VRB7      30.04F
LIMA           MOSUNNY   83  68  60 CALM      30.02F
$$

OHZ009>014-019>023-028>033-038-089-162000-
   NORTHEAST OHIO

CITY           SKY/WX    TMP DP  RH WIND       PRES   REMARKS
CLE-HOPKINS    MOSUNNY   86  57  37 N10       30.08S
CLE-LAKEFRONT  SUNNY     78  57  48 NE12      30.06F
CUY CO. ARPT   MOSUNNY   82  59  44 NW12      30.08F
LORAIN-ELYRIA  PTSUNNY   83  60  45 NW6       30.06F
ASHTABULA      SUNNY     79  54  41 N6        30.09S
AKRON-CANTON   PTSUNNY   85  58  39 CALM      30.07F
WOOSTER        SUNNY     82  61  48 CALM      30.07F
MANSFIELD      MOSUNNY   82  66  58 SE7       30.06F
YOUNGSTOWN     MOSUNNY   82  56  40 N8        30.08F
$$

OHZ042-051>053-060>062-070>072-077>081-162000-
  SOUTHWEST OHIO

CITY           SKY/WX    TMP DP  RH WIND       PRES   REMARKS
CINC-COVINGTON MOSUNNY   88  71  57 S3        30.01F HX  94
CINC-LUNKEN    MOSUNNY   89  73  59 SE9       30.00F HX  97
HAMILTON       MOSUNNY   92  68  45 CALM      30.01F HX  96
DAYTON         MOSUNNY   87  65  47 SW7       30.03F
WRIGHT-PAT AFB MOSUNNY   89  67  47 SE5       30.01F HX  92
DAYTON GENERAL MOSUNNY   87  66  49 VRB7      30.02F
WILMINGTON     SUNNY     88  71  57 MISG      30.03F HX  94
$$

OHZ036-037-039>041-045>050-054>059-063>069-073>076-082>088-162000-
  CENTRAL AND SOUTHEAST OHIO

CITY           SKY/WX    TMP DP  RH WIND       PRES   REMARKS
COLUMBUS       PTSUNNY   87  69  54 W8        30.02F HX  91
OSU AIRPORT    MOSUNNY   86  68  54 W3        30.02F
BOLTON FIELD   MOSUNNY   86  70  58 W5        30.04F HX  90
RICKENBACK AFB SUNNY     87  69  54 W3        30.02F HX  90
NEWARK         CLOUDY    83  69  62 N5        30.03F
MARION         PTSUNNY   85  67  54 NE5       30.04F
LANCASTER      SUNNY     87  69  54 SW6       30.03F HX  91
ZANESVILLE     MOSUNNY   84  67  56 VRB3      30.04F
NEW PHILLY     NOT AVBL
$$




USA.gov is the U.S. government's official web portal to all federal, state and local government web resources and services.